ニート彗星

P/2018 L3 ( NEAT )

English version
Home page
Updated on June 18, 2018

---------------------------------------------------------------------

・ プロフィール

検出日 2018年6月13日
検出光度 19.4等
検出者 E. Schwab (Egelsbach, Germany), D. Abreu (European Space Agency's Optical Ground Station at Tenerife)

・ 軌道要素

Epoch 2018 Aug. 30.0 TT = JDT 2458360.5
T 2018 Sept. 14.25047 TT                                MPCW
q   2.0677913            (2000.0)            P               Q
n   0.07589185     Peri.  118.80486     +0.92629912     -0.27163324
a   5.5250891      Node   257.97761     +0.17793330     +0.92623153
e   0.6257452      Incl.   15.48458     +0.33212903     +0.26136286
P  12.99
From 360 observations 2005 July 5-2018 June 14, mean residual 0".6.

・ 星図

・ 光度変化

        m1 = 13.5 + 5 logΔ + 10.0 log r

---------------------------------------------------------------------

軌道要素はM.P.E.C. 2018-L76に掲載されたものです。
星図はステラナビゲータ Ver.10 (アストロアーツ) で作成したものです。
光度グラフはComet for Windowsで作成したものです。

---------------------------------------------------------------------

Copyright(C) Seiichi Yoshida (comet@aerith.net). All rights reserved.